Regional Weather Roundup
Issued by NWS

Current Version | Previous Version | Text Only | Print | Product List | Glossary Off
Versions: 1 2 3 4 5 6 7 8 9 10 11 12 13 14 15 16 17 18 19 20 21 22 23 24 25 26 27 28 29 30 31 32 33 34 35 36 37 38 39 40 41 42 43 44 45 46 47 48 49 50

000
ASUS42 KFFC 201610
RWRGA
WEATHER ROUNDUP FOR GEORGIA
NATIONAL WEATHER SERVICE PEACHTREE CITY GA
1100 AM EST MON NOV 20 2017

NOTE: "FAIR" INDICATES FEW OR NO CLOUDS BELOW 12,000 FEET WITH NO
SIGNIFICANT WEATHER AND/OR OBSTRUCTIONS TO VISIBILITY.

* = USE WITH CAUTION. THE STATIONS MARKED WITH AN ASTERISK MAY NOT
REPORT WEATHER SUCH AS PRECIPITATION, FOG, OR THUNDER AND ARE NOT
QUALITY CONTROLLED BY NWS.

THE REMARK "TC" DENOTES TEMPERATURE READING IN DEGREES CELSIUS.

GAZ001>058-201700-
NORTH GEORGIA

CITY           SKY/WX    TMP DP  RH WIND       PRES   REMARKS
ATLANTA        MOSUNNY   51  27  39 SE6       30.24S
ATHENS         SUNNY     51  31  46 VRB3      30.26S
CHAMBLEE       SUNNY     50  27  40 VRB3      30.24F
PEACHTREE CITY SUNNY     51  27  39 SE9       30.25S
ROME           SUNNY     47  29  49 VRB3      30.26F
WEST ATLANTA   SUNNY     48  31  51 NE3       30.25S
GAINESVILLE    SUNNY     48  23  37 E6        30.26S
CARTERSVILLE   SUNNY     44  31  60 NE5       30.27S


CITY           SKY/WX    TMP DP  RH WIND       PRES   REMARKS
DALTON*        SUNNY     43  32  65 N3        30.29S
LAWRENCEVILLE* SUNNY     50  27  40 NE7       30.26R
MARIETTA       PTSUNNY   48  28  45 E5        30.24S
KENNESAW*      SUNNY     46  29  51 NE3       30.25F
CANTON*        SUNNY     46  30  53 CALM      30.25F
$$

GAZ059>098-102>109-201700-
CENTRAL GEORGIA

CITY           SKY/WX    TMP DP  RH WIND       PRES   REMARKS
AUGUSTA-BUSH   SUNNY     52  33  48 E3        30.28S
AUGUSTA-DANIEL SUNNY     52  29  41 CALM      30.29R
COLUMBUS       SUNNY     50  31  48 SE6       30.26S
MACON          SUNNY     51  33  50 SE8       30.26F


CITY           SKY/WX    TMP DP  RH WIND       PRES   REMARKS
LAGRANGE*      SUNNY     51  30  44 S6        30.26S
SYLVANIA*      SUNNY     54  35  47 E5        30.29S
MILLEDGEVILLE* SUNNY     52  36  54 E5        30.27S
$$

GAZ099>101-110>166-201700-
SOUTH GEORGIA

CITY           SKY/WX    TMP DP  RH WIND       PRES   REMARKS
SAVANNAH       MOSUNNY   59  34  39 NE7       30.27S
VALDOSTA       SUNNY     56  43  61 E5        30.24S
ALMA           SUNNY     58  35  42 NE7       30.25S
ST SIMONS      SUNNY     65  50  58 NE12      30.23R
ALBANY         MOSUNNY   55  35  47 E9        30.27F
BRUNSWICK      SUNNY     63  46  55 NE15      30.25R


CITY           SKY/WX    TMP DP  RH WIND       PRES   REMARKS
BAINBRIDGE*    MOSUNNY   55  39  54 E7        30.24F
MOULTRIE*        N/A     55  36  47 E6        30.25F
VIDALIA*       SUNNY     55  36  47 NE7       30.27S
WAYCROSS*      SUNNY     60  39  46 E7        30.25S
DOUGLAS*       SUNNY     55  34  44 E9        30.27F
$$



USA.gov is the U.S. government's official web portal to all federal, state and local government web resources and services.